Location: Pianadetto
(44.4000°N, 10.1000°E)
Time: 02:08:55
(UTC+00:00)

NOSS 2-2 (D) - Pass Details

Date: 26 May 2022
Orbit: 437 x 1764 km, 63.3° (Epoch: 11 June)

Event Time Altitude Azimuth Distance (km) Brightness Sun altitude
Rises 00:00:15 0° 323° (NW) 3,019 7.7 -23.8°
Reaches altitude 10° 00:02:15 10° 324° (NW) 2,244 6.9 -23.7°
Maximum altitude 00:07:26 85° 52° (NE) 933 4.3 -23.5°
Enters shadow 00:11:38 26° 141° (SE) 1,999 5.8 -23.3°
